Pine Ridge, SD

3:56 AM MDT on March 30, 2017 (GMT -0600)
Pine Ridge

Weather History for KIEN - December, 2012

Change the Weather History Date:

Friday, December 21, 2012

  Actual Average Record
Temperature  
Mean Temperature 35 °F 22 °F  
Max Temperature 52 °F 35 °F 52 °F (2012)
Min Temperature 17 °F 9 °F -17 °F (1998)
Degree Days  
Heating Degree Days 30 43  
Month to date heating degree days 693 873  
Since 1 July heating degree days 2281 2563  
Cooling Degree Days 0 0  
Month to date cooling degree days 0 0  
Year to date cooling degree days 1103 717  
Moisture  
Dew Point 11 °F    
Average Humidity 47    
Maximum Humidity 73    
Minimum Humidity 21    
Precipitation  
Precipitation 0.00 in 0.02 in 0.07 in (2003)
Month to date precipitation 0.08 0.24  
Year to date precipitation 11.11 17.41  
Sea Level Pressure  
Sea Level Pressure 30.13 in    
Wind  
Wind Speed 6 mph (WSW)    
Max Wind Speed 14 mph    
Max Gust Speed 17 mph    
Visibility 10 miles    
Events      
T = Trace of Precipitation, MM = Missing Value Source: NWS Daily Summary

Daily Weather History Graph

Daily Weather History Graph

Search for Another Location

Airport or City:

Trip Planner

Search our weather history database for the weather conditions in past years. The results will help you decide how hot, cold, wet, or windy it might be!

Date:

Astronomy

Dec. 21, 2012 Rise Set
Actual Time 7:18 AM MST 4:18 PM MST
Civil Twilight 6:45 AM MST 4:50 PM MST
Nautical Twilight 6:10 AM MST 5:26 PM MST
Astronomical Twilight 5:35 AM MST 6:01 PM MST
Moon 12:12 PM MST (12/21) 1:00 AM MST (12/21)
Length of Visible Light 10h 05m
Length of Day
9h 00m
Waxing Gibbous, 65% of the Moon is Illuminated
Dec 21
Waxing Gibbous
Dec 28
Full
Jan 4
Last Quarter
Jan 11
New
Jan 18
First Quarter

Hourly Weather History & Observations

Time (MST) Temp. Windchill Dew Point Humidity Pressure Visibility Wind Dir Wind Speed Gust Speed Precip Events Conditions
12:52 AM 21.9 °F 15.7 °F 8.1 °F 55% 30.19 in 10.0 mi WSW 4.6 mph - N/A   Clear
1:52 AM 18.0 °F 11.1 °F 7.0 °F 62% 30.20 in 10.0 mi WSW 4.6 mph - N/A   Clear
2:52 AM 18.0 °F 6.9 °F 8.1 °F 65% 30.19 in 10.0 mi WSW 9.2 mph - N/A   Clear
3:52 AM 19.0 °F 10.0 °F 7.0 °F 59% 30.19 in 10.0 mi WSW 6.9 mph - N/A   Clear
4:52 AM 19.0 °F 8.2 °F 8.1 °F 62% 30.20 in 10.0 mi WSW 9.2 mph - N/A   Clear
5:52 AM 19.0 °F 7.5 °F 7.0 °F 59% 30.23 in 10.0 mi WSW 10.4 mph - N/A   Clear
6:52 AM 19.0 °F 9.0 °F 7.0 °F 59% 30.23 in 10.0 mi WSW 8.1 mph - N/A   Clear
7:52 AM 18.0 °F 8.7 °F 8.1 °F 65% 30.25 in 10.0 mi WSW 6.9 mph - N/A   Clear
8:52 AM 26.1 °F 18.4 °F 10.0 °F 51% 30.23 in 10.0 mi WSW 6.9 mph - N/A   Clear
9:52 AM 33.1 °F - 10.0 °F 38% 30.19 in 10.0 mi Calm Calm - N/A   Clear
10:52 AM 41.0 °F 35.2 °F 10.0 °F 28% 30.16 in 10.0 mi WSW 9.2 mph - N/A   Clear
11:52 AM 45.0 °F 40.1 °F 9.0 °F 23% 30.13 in 10.0 mi West 9.2 mph - N/A   Clear
12:52 PM 48.9 °F - 10.0 °F 21% 30.07 in 10.0 mi WSW 9.2 mph - N/A   Clear
1:52 PM 52.0 °F - 12.0 °F 20% 30.06 in 10.0 mi SW 12.7 mph - N/A   Clear
2:52 PM 50.0 °F - 14.0 °F 24% 30.06 in 10.0 mi West 6.9 mph - N/A   Clear
3:52 PM 45.0 °F - 12.9 °F 27% 30.06 in 8.0 mi Calm Calm - N/A   Clear
4:52 PM 30.9 °F - 15.1 °F 52% 30.10 in 10.0 mi Calm Calm - N/A   Clear
5:52 PM 25.0 °F - 15.1 °F 66% 30.11 in 10.0 mi Calm Calm - N/A   Clear
6:52 PM 19.9 °F - 12.9 °F 74% 30.11 in 10.0 mi Calm Calm - N/A   Clear
7:52 PM 19.0 °F - 12.9 °F 77% 30.11 in 10.0 mi Calm Calm - N/A   Clear
8:52 PM 21.0 °F - 12.9 °F 71% 30.07 in 10.0 mi Calm Calm - N/A   Clear
9:52 PM 28.0 °F 20.0 °F 15.1 °F 58% 30.03 in 10.0 mi WSW 8.1 mph - N/A   Clear
10:52 PM 25.0 °F 17.1 °F 14.0 °F 63% 30.01 in 10.0 mi WSW 6.9 mph - N/A   Clear
11:52 PM 28.0 °F 24.2 °F 12.0 °F 51% 30.00 in 10.0 mi West 3.5 mph - N/A   Clear